User: anonymous   Login
Location: Henham
(51.9333°N, 0.2500°E)
Time: 10:41:03
(UTC+00:00)
Language:

Resurs 01 Rocket - Orbit

View from above orbital plane
View from above orbital plane
View from above satellite
View from above satellite

Ground track
Ground track

The orbit data is extracted from the following two-line orbital elements,

1 23343U 94074B   19345.68903851  .00000008  00000-0  85516-5 0  9999
2 23343  98.0289  35.0513 0007799  46.7720  64.6840 14.76802335350766
Epoch (UTC): 11 December 2019 16:32:12
Eccentricity: 0.0007799
inclination: 98.0289°
perigee height: 634 km
apogee height: 645 km
right ascension of ascending node: 35.0513°
argument of perigee: 46.7720°
revolutions per day: 14.76802335
mean anomaly at epoch: 64.6840°
orbit number at epoch: 35076

The dashed part of the orbit path shows where the satellite is in the earth's shadow,  

DLR